Weather History for GMMX - November, 2012

Change the Weather History Date:

Saturday, November 24, 2012

  Actual Average Record
Temperature  
Mean Temperature 62 °F -  
Max Temperature 76 °F 65 °F 77 °F (2006)
Min Temperature 48 °F 44 °F 42 °F (1999)
Degree Days  
Heating Degree Days 3    
Growing Degree Days 12 (Base 50)    
Moisture  
Dew Point 49 °F    
Average Humidity 63    
Maximum Humidity 94    
Minimum Humidity 23    
Precipitation  
Precipitation 0.00 in 0.04 in - ()
Sea Level Pressure  
Sea Level Pressure 30.09 in    
Wind  
Wind Speed 3 mph ()    
Max Wind Speed 6 mph    
Max Gust Speed -    
Visibility 5.3 miles    
Events      
Averages and records for this station are not official NWS values.
T = Trace of Precipitation, MM = Missing Value Source: Averaged Metar Reports

Daily Weather History Graph

Daily Weather History Graph

Search for Another Location

Airport or City:

Trip Planner

Search our weather history database for the weather conditions in past years. The results will help you decide how hot, cold, wet, or windy it might be!

Date:

Astronomy

Nov. 24, 2012 Rise Set
Actual Time 7:08 AM WET 5:29 PM WET
Civil Twilight 6:41 AM WET 5:55 PM WET
Nautical Twilight 6:12 AM WET 6:25 PM WET
Astronomical Twilight 5:42 AM WET 6:54 PM WET
Moon 2:57 PM WET 3:23 AM WET
Length of Visible Light 11h 13m
Length of Day
10h 21m
Waxing Gibbous, 85% of the Moon is Illuminated
Nov 24
Waxing Gibbous
Nov 28
Full
Dec 6
Last Quarter
Dec 13
New
Dec 20
First Quarter

Hourly Weather History & Observations

Time (WET) Temp. Dew Point Humidity Pressure Visibility Wind Dir Wind Speed Gust Speed Precip Events Conditions
12:00 AM 60.8 °F 51.8 °F 72% 30.12 in - Calm Calm - N/A   Clear
1:30 AM 55.4 °F 50.0 °F 82% 30.09 in - Calm Calm - N/A   Clear
2:00 AM 55.4 °F 50.0 °F 82% 30.09 in - ESE 4.6 mph - N/A   Clear
2:30 AM 55.4 °F 50.0 °F 82% 30.09 in - ESE 4.6 mph - N/A   Clear
3:00 AM 55 °F 50 °F 76% 30.09 in 6 mi Calm Calm - -  
3:00 AM 55.4 °F 50.0 °F 82% 30.09 in - Calm Calm - N/A   Clear
3:30 AM 53.6 °F 50.0 °F 88% 30.09 in - Calm Calm - N/A   Clear
4:00 AM 53.6 °F 50.0 °F 88% 30.09 in - ENE 3.5 mph - N/A   Clear
4:30 AM 53.6 °F 50.0 °F 88% 30.09 in - East 4.6 mph - N/A   Clear
5:00 AM 51.8 °F 50.0 °F 94% 30.09 in - ESE 3.5 mph - N/A   Clear
5:30 AM 51.8 °F 48.2 °F 88% 30.09 in - East 5.8 mph - N/A   Clear
6:00 AM 52 °F 49 °F 87% 30.12 in 6 mi SE 3.5 mph - -  
6:00 AM 51.8 °F 50.0 °F 94% 30.09 in - Variable 2.3 mph - N/A   Clear
6:30 AM 51.8 °F 48.2 °F 88% 30.09 in - ESE 3.5 mph - N/A   Clear
7:00 AM 51.8 °F 50.0 °F 94% 30.09 in - East 5.8 mph - N/A   Clear
7:30 AM 51.8 °F 48.2 °F 88% 30.12 in - East 4.6 mph - N/A   Clear
8:00 AM 51.8 °F 50.0 °F 94% 30.12 in - East 4.6 mph - N/A   Clear
8:30 AM 53.6 °F 51.8 °F 94% 30.12 in - East 3.5 mph - N/A   Clear
9:00 AM 57 °F 52 °F 79% 30.12 in 6 mi ENE 4.6 mph - -   Clear
9:00 AM 57.2 °F 51.8 °F 82% 30.12 in - ENE 3.5 mph - N/A   Clear
9:30 AM 60.8 °F 53.6 °F 77% 30.12 in - East 4.6 mph - N/A   Clear
10:00 AM 64.4 °F 53.6 °F 68% 30.12 in - East 4.6 mph - N/A   Clear
10:30 AM 68.0 °F 55.4 °F 64% 30.12 in 6.2 mi ENE 3.5 mph - N/A   Mostly Cloudy
11:00 AM 69.8 °F 53.6 °F 56% 30.12 in - NE 4.6 mph - N/A   Clear
11:30 AM 71.6 °F 51.8 °F 50% 30.12 in - NE 4.6 mph - N/A   Clear
12:00 PM 72 °F 52 °F 38% 30.06 in 6 mi ENE 5.8 mph - -   Partly Cloudy
12:00 PM 71.6 °F 53.6 °F 53% 30.12 in 6.2 mi ENE 4.6 mph - N/A   Mostly Cloudy
12:30 PM 73.4 °F 53.6 °F 50% 30.09 in 6.2 mi ENE 4.6 mph - N/A   Mostly Cloudy
1:00 PM 73.4 °F 51.8 °F 47% 30.09 in 6.2 mi ENE 3.5 mph - N/A   Mostly Cloudy
1:30 PM 75.2 °F 53.6 °F 47% 30.09 in 6.2 mi Variable 2.3 mph - N/A   Mostly Cloudy
2:00 PM 73.4 °F 51.8 °F 47% 30.06 in 6.2 mi North 4.6 mph - N/A   Mostly Cloudy
2:30 PM 75.2 °F 48.2 °F 38% 30.06 in 6.2 mi NNW 3.5 mph - N/A   Mostly Cloudy
3:00 PM 75 °F 45 °F 23% 30.00 in 6 mi North 4.6 mph - -   Partly Cloudy
3:00 PM 75.2 °F 46.4 °F 36% 30.06 in 6.2 mi North 4.6 mph - N/A   Mostly Cloudy
3:30 PM 75.2 °F 42.8 °F 31% 30.06 in 6.2 mi NNW 4.6 mph - N/A   Mostly Cloudy
4:00 PM 75.2 °F 42.8 °F 31% 30.06 in 6.2 mi NNW 4.6 mph - N/A   Mostly Cloudy
4:30 PM 75.2 °F 42.8 °F 31% 30.06 in 6.2 mi NNW 4.6 mph - N/A   Mostly Cloudy
5:00 PM 73.4 °F 42.8 °F 33% 30.06 in 6.2 mi North 3.5 mph - N/A   Mostly Cloudy
5:30 PM 73.4 °F 42.8 °F 33% 30.06 in 5.6 mi NNW 3.5 mph - N/A   Mostly Cloudy
6:00 PM 71 °F 43 °F 25% 30.03 in 6 mi NW 3.5 mph - -   Scattered Clouds
6:00 PM 71.6 °F 42.8 °F 35% 30.06 in 5.6 mi NW 3.5 mph - N/A   Mostly Cloudy
6:30 PM 69.8 °F 46.4 °F 43% 30.09 in 3.7 mi Calm Calm - N/A   Mostly Cloudy
7:00 PM 68.0 °F 46.4 °F 46% 30.09 in 4.3 mi Calm Calm - N/A   Scattered Clouds
7:30 PM 66.2 °F 48.2 °F 52% 30.09 in 4.3 mi Calm Calm - N/A   Scattered Clouds
8:00 PM 64.4 °F 48.2 °F 56% 30.09 in 4.3 mi Calm Calm - N/A   Scattered Clouds
8:30 PM 64.4 °F 50.0 °F 59% 30.09 in - SSE 4.6 mph - N/A   Scattered Clouds
9:00 PM 62 °F 50 °F 54% 30.09 in 2 mi Calm Calm - -   Partly Cloudy
9:00 PM 62.6 °F 50.0 °F 63% 30.12 in - Calm Calm - N/A   Scattered Clouds
9:30 PM 60.8 °F 50.0 °F 68% 30.12 in 2.5 mi South 4.6 mph - N/A   Scattered Clouds
10:00 PM 60.8 °F 50.0 °F 68% 30.09 in 4.3 mi SSE 3.5 mph - N/A   Scattered Clouds
10:30 PM 60.8 °F 50.0 °F 68% 30.09 in 3.1 mi SW 3.5 mph - N/A   Scattered Clouds
11:00 PM 59.0 °F 48.2 °F 67% 30.09 in 6.2 mi SW 3.5 mph - N/A   Scattered Clouds
11:30 PM 57.2 °F 50.0 °F 77% 30.09 in 3.7 mi Calm Calm - N/A   Scattered Clouds